Regional Weather Roundup
Issued by NWS

Home | Current Version | Previous Version | Graphics & Text | Print | Product List | Glossary On
Versions: 1 2 3 4 5 6 7 8 9 10 11 12 13 14 15 16 17 18 19 20 21 22 23 24 25 26 27 28 29 30 31 32 33 34 35 36 37 38 39 40 41 42 43 44 45 46 47 48 49 50
000
ASUS43 KMPX 031410
RWRMN
WEATHER ROUNDUP FOR MINNESOTA
NATIONAL WEATHER SERVICE TWIN CITIES/CHANHASSEN MN
800 AM CST TUE MAR 03 2015


NOTE: "FAIR" INDICATES FEW OR NO CLOUDS BELOW 12,000 FEET WITH NO
SIGNIFICANT WEATHER AND/OR OBSTRUCTIONS TO VISIBILITY. N/A MEANS
CURRENT SKY AND/OR WEATHER CONDITIONS ARE NOT AVAILABLE.

MNZ060>063-068>070-031500-
   Twin Cities Metro

CITY           SKY/WX    TMP DP  RH WIND       PRES   REMARKS
TWIN CITIES    LGT SNOW  21  17  84 S3        29.72R VSB 3/4
ST PAUL        LGT SNOW  22  20  92 CALM      29.74R VSB 3/4
CRYSTAL        SNOW      22  19  89 S7        29.70F VSB 1/4 WCI  13
BLAINE         SNOW      25  19  80 S5        29.71R VSB 1/2 WCI  19
LAKEVILLE      CLOUDY    21  19  93 S1        29.71R
EDEN PRAIRIE   SNOW      22  19  89 CALM      29.71R VSB 1/2
SOUTH ST PAUL  MIX PCPN  23  19  87 CALM      29.72R
LAKE ELMO      SNOW      23  21  93 S3        29.72R VSB 1/2
$$
MNZ001>005-007-008-013>017-022>024-027-028-031500-
   Northwest Minnesota

CITY           SKY/WX    TMP DP  RH WIND       PRES   REMARKS
BEMIDJI        LGT SNOW  19  17  88 NW20      29.64R WCI   4
HALLOCK        CLOUDY    10   7  85 NW18G26   29.80R WCI  -8
ROSEAU         LGT SNOW  12   7  79 NW23      29.70R WCI  -7
WARROAD        LGT SNOW  16  10  79 NW21G31   29.68R WCI  -2
THIEF RVR FALL CLOUDY    12   7  79 NW25      29.73R WCI  -8
CROOKSTON      CLOUDY    14   7  73 N24G31    29.79R WCI  -5
FOSSTON        CLOUDY    12   7  79 NW18G28   29.71R HAZE    WCI  -5
DETROIT LAKES  LGT SNOW  19  18  93 N17G25    29.71R VSB 1   WCI   4
MOORHEAD       MIX PCPN  18  14  86 NW22G29   29.79R WCI   0
PARK RAPIDS    LGT SNOW  24  21  88 W15       29.62S VSB 1   WCI  11
MAHNOMEN       CLOUDY    16  10  80 NW23G30   29.72R HAZE    WCI  -3
$$
MNZ006-009>011-018-025>026-031500-
   North Central Minnesota

CITY           SKY/WX    TMP DP  RH WIND       PRES   REMARKS
BAUDETTE       LGT SNOW  20  15  81 NW23      29.60F WCI   3
FLAG ISLAND    LGT SNOW  16  10  79 NW23G32   29.64R WCI  -2
INTL FALLS     LGT SNOW  23  19  85 W7        29.56F VSB 3/4 WCI  15
WASKISH        FLURRIES  19  18  93 W13G20    29.62R WCI   7
BIG FORK       LGT SNOW  21  19  93 SW10      29.59F VSB 3/4 WCI  10
LONGVILLE      SNOW      19  18  93 S6        29.63F VSB 1/2 WCI  11
GRAND RAPIDS   CLOUDY    19  18  93 S8        29.60F VSB 1/2 WCI   9
CRANE LAKE     LGT SNOW  19  18  93 S8        29.60F WCI   9
ORR            LGT SNOW  19  16  86 S7        29.56F WCI  10
COOK           SNOW      19  18  93 SW5       29.60S VSB 1/2 WCI  13
WALKER         LGT SNOW  21  19  92 W6        29.62R WCI  14
$$
MNZ012-019>021-037-031500-
   Northeast Minnesota

CITY           SKY/WX    TMP DP  RH WIND       PRES   REMARKS
DULUTH         LGT SNOW  19  15  84 S12       29.62F VSB 3/4 WCI   7
ELY            LGT SNOW  19  16  86 SW7       29.59F WCI  10
HIBBING        SNOW      19  16  88 S6        29.61F VSB 1/2 WCI  11
EVELETH        SNOW      21  18  86 S7        29.62F VSB 1/2 WCI  13
DULUTH HARBOR  LGT SNOW  21  18  86 S6        29.69F WCI  14
TWO HARBORS    LGT SNOW  23  18  80 SW7       29.63F WCI  15
SILVER BAY     SNOW      21  19  93 S7        29.63F VSB 1/2 WCI  13
GRAND MARAIS     N/A     26  23  88 S23       29.67F WCI  11
G MARAIS ARPRT LGT SNOW  19  16  86 S8        29.60F VSB 3/4 WCI   9
$$
MNZ029>031-032-039>041-046>048-054>057-064-031500-
   West Central Minnesota

CITY           SKY/WX    TMP DP  RH WIND       PRES   REMARKS
FERGUS FALLS   LGT SNOW  18  12  79 N20G32    29.76R WCI   1
WHEATON        LGT SNOW  16  14  93 NW22G32   29.78R VSB 1   WCI  -2
MORRIS         LGT SNOW  21  18  86 NW23G29   29.71R VSB 3/4 WCI   5
ALEXANDRIA     SNOW      21  19  92 SW12      29.66S VSB 1/2 WCI   9
ELBOW LAKE     LGT SNOW  18  15  91 NW21G30   29.70R VSB 1   WCI   1
WADENA         LGT SNOW  21  19  93 W7        29.64F VSB 1   WCI  13
GLENWOOD       SNOW      21  19  93 SW8       29.67S VSB 1/2 WCI  12
APPLETON       LGT SNOW  25  21  86 W14       29.71S VSB 3/4 WCI  13
BENSON         LGT SNOW  21  19  93 W3        29.69S VSB 3/4
ORTONVILLE     LGT SNOW  21  18  86 N21G26    29.73S VSB 3/4 WCI   6
MADISON        LGT SNOW  25  25 100 W8        29.72R VSB 3/4 WCI  16
WILLMAR        LGT SNOW  23  19  86 SW3       29.69F VSB 3/4
$$
MNZ033>034-036-042>043-049>051-058-059-031500-
   Central Minnesota

CITY           SKY/WX    TMP DP  RH WIND       PRES   REMARKS
ST CLOUD       SNOW      20  17  88 S7        29.68S VSB 1/4 WCI  11
SAUK CENTRE    SNOW      20  18  93 S5        29.67S VSB 1/2 WCI  13
PAYNESVILLE    LGT SNOW  19  18  96 SE6       29.68F VSB 3/4 WCI  10
AITKIN         LGT SNOW  21  16  79 S7        29.64S VSB 3/4 WCI  13
PINE RIVER     SNOW      19  18  93 CALM      29.68S VSB 1/2
BRAINERD       SNOW      19  17  92 S9        29.65S VSB 1/2 WCI   8
STAPLES        SNOW      19  18  93 SW3       29.65S VSB 1/2
LITTLE FALLS   SNOW      21  18  86 S3        29.68R VSB 1/2
LITCHFIELD     MIX PCPN  21  21 100 CALM      29.69F VSB 3/4
BUFFALO        SNOW      21  19  90 CALM      29.70F VSB 1/4
MAPLE LAKE     SNOW      22  20  93 S3        29.70S VSB 1/4
$$
MNZ037-044-045-052-053-031500-
   East Central Minnesota

CITY           SKY/WX    TMP DP  RH WIND       PRES   REMARKS
PRINCETON      SNOW      21  18  86 S5        29.69R VSB 1/2 WCI  15
MORA           LGT SNOW  19  16  86 S3        29.70S VSB 3/4
CAMBRIDGE      CLOUDY    21  14  73 S5        29.68S VSB 3/4 WCI  15
RUSH CITY      LGT SNOW  20  16  85 S3        29.71R
MOOSE LAKE     SNOW      19  18  93 CALM      29.65S VSB 1/2
HINCKLEY       SNOW      21  19  93 S5        29.69S VSB 1/2 WCI  15
CLOQUET        LGT SNOW  19  16  86 S6        29.64F VSB 1   WCI  11
MCGREGOR       CLOUDY    19  18  93 S6        29.65S VSB 1/4 WCI  11
$$
MNZ071>073-080-081-089-090-097-098-031500-
   Southwest Minnesota

CITY           SKY/WX    TMP DP  RH WIND       PRES   REMARKS
MONTEVIDEO     SNOW      23  21  93 SW6       29.70F VSB 1/2 WCI  16
GRANITE FALLS  LGT SNOW  22  21  94 S5        29.70F VSB 3/4 WCI  16
CANBY          SNOW      26  25  96 W10       29.70S VSB 1/2 WCI  16
MARSHALL       CLOUDY    23  19  86 CALM      29.69F VSB 1/2
REDWOOD FALLS  SNOW      23  21  92 CALM      29.70F VSB 1/4
OLIVIA         SNOW      21  19  93 SW5       29.69F VSB 1/4 WCI  15
PIPESTONE      LGT SNOW  23  21  93 W3        29.66R VSB 1
WINDOM         LGT SNOW  23  21  93 CALM      29.67S VSB 1
WORTHINGTON    CLOUDY    27  19  74 CALM      29.68S
JACKSON        LGT SNOW  25  21  86 CALM      29.66F VSB 1
TRACY          LGT SNOW  25  23  93 SW7       29.67F VSB 3/4 WCI  17
SLAYTON        LGT SNOW  23  21  93 CALM      29.67F VSB 1
$$
MNZ065>067-074>077-082>085-091>093-031500-
   South Central Minnesota

CITY           SKY/WX    TMP DP  RH WIND       PRES   REMARKS
MANKATO        CLOUDY    25  19  80 S6        29.69F WCI  18
NEW ULM        LGT SNOW  21  21 100 S3        29.70F VSB 3/4
ST JAMES       LGT SNOW  25  21  86 CALM      29.70R VSB 1
FAIRMONT       CLOUDY    25  19  80 S3        29.67S
GLENCOE        HVY SNOW  23  22  96 CALM      29.68F VSB<1/4
FARIBAULT      LGT SNOW  25  21  86 S3        29.70R VSB 3/4
OWATONNA       CLOUDY    25  21  86 S8        29.68S WCI  16
WASECA         LGT SNOW  23  21  93 S8        29.70R WCI  14
ALBERT LEA     MIX PCPN  25  25 100 S6        29.66F WCI  18
$$
MNZ078>079-086>088-094>096-031500-
   Southeast Minnesota

CITY           SKY/WX    TMP DP  RH WIND       PRES   REMARKS
ROCHESTER      LGT SNOW  23  21  92 S10       29.68S VSB 1   WCI  12
RED WING       LGT SNOW  25  19  80 SE3       29.72S
STANTON        LGT SNOW  25  21  87 CALM      29.69R
DODGE CENTER   LGT SNOW  25  25 100 S9        29.67R WCI  15
WINONA         CLOUDY    25  23  93 SE5       29.74S FOG     WCI  19
AUSTIN         MIX PCPN  25  23  93 S7        29.68R VSB 1   WCI  17
PRESTON        FOG       22  21  96 SE6       29.68F VSB 3/4 WCI  14
$$
ABBREVIATIONS USED IN REMARKS
   TC - TEMPERATURES IN CELSIUS
  WCI - WIND CHILL INDEX
   HX - HEAT INDEX
  VSB - VISIBILITY
$$



USA.gov is the U.S. government's official web portal to all federal, state and local government web resources and services.